This demonstration page uses our WeatherBlox Daily Observations layout. Learn more.

Left ArrowRight Arrow

Hourly Observations for February 3, 2018

Temp ( °F °C ) Dew Point ( °F °C ) Humidity (%) Winds ( mph kmh ) Pressure ( in mb ) Visibility ( mi km ) Precip ( " mm )
12:54 am 00:54 Cloudy 34 1.1 13 -10.6 42 42 SSW 13 20 30.05 1018 10 16 0.00 0.00
1:54 am 01:54 Cloudy 36 2.2 13 -10.6 39 39 SSW 16 26 30.01 1016 10 16 0.00 0.00
2:54 am 02:54 Mostly Clear 34 1.1 13 -10.6 42 42 SSW 13 20 29.99 1016 10 16 0.00 0.00
3:54 am 03:54 Mostly Clear 34 1.1 13 -10.6 42 42 SSW 12 19 29.97 1015 10 16 0.00 0.00
4:54 am 04:54 Clear 32 0 13 -10.6 45 45 S 9 15 29.95 1014 10 16 0.00 0.00
5:54 am 05:54 Cloudy 33 0.6 14 -10 45 45 S 9 15 29.93 1014 10 16 0.00 0.00
6:54 am 06:54 Cloudy 36 2.2 14 -10 40 40 SSW 15 24 29.90 1012 10 16 0.00 0.00
7:54 am 07:54 Cloudy 36 2.2 14 -10 40 40 SSW 16 26 29.88 1012 10 16 0.00 0.00
8:54 am 08:54 Mostly Cloudy 38 3.3 14 -10 37 37 SSW 22 35 29.85 1011 10 16 0.00 0.00
9:54 am 09:54 Cloudy 40 4.4 14 -10 35 35 SSW 20 31 29.83 1010 10 16 0.00 0.00
10:54 am 10:54 Cloudy 42 5.6 15 -9.4 33 33 SSW 21 33 29.80 1009 10 16 0.00 0.00
11:54 am 11:54 Cloudy 44 6.7 16 -8.9 32 32 SSW 18 30 29.75 1008 10 16 0.00 0.00
12:54 pm 12:54 Sunny 49 9.4 18 -7.8 29 29 SW 15 24 29.72 1006 10 16 0.00 0.00
1:54 pm 13:54 Mostly Cloudy 49 9.4 18 -7.8 29 29 SW 15 24 29.70 1006 10 16 0.00 0.00
2:54 pm 14:54 Cloudy 50 10 20 -6.7 30 30 WSW 16 26 29.70 1006 10 16 0.00 0.00
3:54 pm 15:54 Cloudy 52 11.1 22 -5.6 31 31 WSW 14 22 29.70 1006 10 16 0.00 0.00
4:54 pm 16:54 Cloudy 51 10.6 33 0.6 50 50 NNW 10 17 29.72 1006 10 16 0.00 0.00
5:54 pm 17:54 Mostly Cloudy 48 8.9 33 0.6 56 56 NW 18 30 29.76 1008 10 16 0.00 0.00
6:54 pm 18:54 Clear 42 5.6 31 -0.6 65 65 N 20 31 29.80 1009 10 16 0.00 0.00
7:54 pm 19:54 Mostly Cloudy 39 3.9 30 -1.1 70 70 N 15 24 29.85 1011 10 16 0.00 0.00
8:54 pm 20:54 Mostly Cloudy 35 1.7 27 -2.8 72 72 N 21 33 29.88 1012 10 16 0.00 0.00
9:54 pm 21:54 Cloudy 33 0.6 25 -3.9 72 72 N 22 35 29.92 1013 10 16 0.00 0.00
10:07 pm 22:07 Cloudy 31 -0.6 24 -4.4 76 76 N 24 39 29.97 1015 10 16 0.00 0.00
10:54 pm 22:54 Cloudy 28 -2.2 21 -6.1 75 75 N 24 39 29.98 1015 9 14 0.00 0.00
11:28 pm 23:28 Cloudy 26 -3.3 20 -6.7 78 78 N 25 41 30.06 1018 9 14 0.00 0.00
11:54 pm 23:54 Cloudy 25 -3.9 18 -7.8 75 75 N 28 44 30.03 1017 9 14 0.00 0.00

Powered by AerisWeather